RXI401 OERK-OEJN

Flight info

Callsign RXI401
Flight time N/A
Altitude 32000
Route UMASU M309 VEMEM
Aircraft B78X/H-SDE1E2E3FGHIJ2J3J4J5M1RWXY/LB1D1

Departure

Time 2026-05-07 23:13
Airport King Khalid International Airport (OERK)

Arrival

Time N/A
Airport King Abdulaziz International Airport (OEJN)
Time Latitude Longitude Altitude Speed Heading
2026-05-07 22:53 24.95682 46.70680 2049 ft 0 kts 237°
2026-05-07 23:01 24.95687 46.70689 2049 ft 6 kts 237°
2026-05-07 23:01 24.95698 46.70708 2054 ft 6 kts 238°
2026-05-07 23:01 24.95708 46.70727 2050 ft 6 kts 238°
2026-05-07 23:02 24.95717 46.70742 2049 ft 6 kts 233°
2026-05-07 23:02 24.95727 46.70756 2049 ft 6 kts 207°
2026-05-07 23:02 24.95740 46.70762 2049 ft 6 kts 175°
2026-05-07 23:02 24.95758 46.70759 2051 ft 6 kts 157°
2026-05-07 23:03 24.95776 46.70750 2049 ft 5 kts 150°
2026-05-07 23:03 24.95781 46.70747 2049 ft 8 kts 150°
2026-05-07 23:04 24.95780 46.70747 2049 ft 1 kts 150°
2026-05-07 23:04 24.95759 46.70761 2051 ft 6 kts 150°
2026-05-07 23:04 24.95707 46.70794 2052 ft 11 kts 149°
2026-05-07 23:04 24.95625 46.70846 2053 ft 16 kts 151°
2026-05-07 23:05 24.95520 46.70911 2049 ft 19 kts 151°
2026-05-07 23:05 24.95405 46.70982 2054 ft 16 kts 150°
2026-05-07 23:05 24.95378 46.71001 2049 ft 0 kts 144°
2026-05-07 23:05 24.95367 46.71009 2052 ft 5 kts 148°
2026-05-07 23:06 24.95340 46.71067 2053 ft 13 kts 91°
2026-05-07 23:06 24.95388 46.71182 2055 ft 20 kts 61°
2026-05-07 23:06 24.95407 46.71276 2053 ft 10 kts 103°
2026-05-07 23:06 24.95359 46.71328 2050 ft 10 kts 147°
2026-05-07 23:07 24.95301 46.71366 2051 ft 9 kts 150°
2026-05-07 23:07 24.95241 46.71402 2052 ft 10 kts 150°
2026-05-07 23:07 24.95167 46.71447 2052 ft 15 kts 149°
2026-05-07 23:07 24.95077 46.71508 2049 ft 15 kts 149°
2026-05-07 23:08 24.94980 46.71560 2049 ft 16 kts 160°
2026-05-07 23:08 24.94892 46.71623 2054 ft 20 kts 148°
2026-05-07 23:08 24.94748 46.71716 2051 ft 25 kts 150°
2026-05-07 23:08 24.94598 46.71810 2051 ft 24 kts 150°
2026-05-07 23:09 24.94458 46.71898 2051 ft 16 kts 151°
2026-05-07 23:09 24.94382 46.71945 2053 ft 12 kts 147°
2026-05-07 23:09 24.94316 46.71993 2051 ft 10 kts 140°
2026-05-07 23:09 24.94303 46.72050 2051 ft 7 kts 80°
2026-05-07 23:10 24.94325 46.72103 2050 ft 6 kts 61°
2026-05-07 23:10 24.94329 46.72111 2049 ft 0 kts 60°
2026-05-07 23:10 24.94332 46.72116 2049 ft 3 kts 60°
2026-05-07 23:11 24.94351 46.72153 2047 ft 9 kts 59°
2026-05-07 23:11 24.94393 46.72231 2046 ft 13 kts 58°
2026-05-07 23:11 24.94444 46.72248 2042 ft 7 kts 340°
2026-05-07 23:11 24.94459 46.72239 2046 ft 0 kts 329°
2026-05-07 23:12 24.94460 46.72239 2046 ft 0 kts 329°
2026-05-07 23:12 24.94466 46.72235 2038 ft 4 kts 330°
2026-05-07 23:12 24.94633 46.72131 2048 ft 59 kts 332°
2026-05-07 23:12 24.95196 46.71774 2045 ft 125 kts 329°
2026-05-07 23:13 24.96110 46.71175 2100 ft 172 kts 328°
2026-05-07 23:13 24.96738 46.70644 2241 ft 0 kts 327°
2026-05-07 23:13 24.96370 46.70795 3160 ft 104 kts 167°
2026-05-07 23:13 24.95748 46.70900 2045 ft 21 kts 174°
2026-05-07 23:14 24.95737 46.70901 2050 ft 0 kts 174°